Location: *
(46.1006°N, 1.8394°E)
Time: 12:09:44
(UTC+00:00)

USA 234 - Pass Details

Date: 20 September 2019
Orbit: 1103 x 1105 km, 123.0° (Epoch: 17 October)

Event Time Altitude Azimuth Distance (km) Brightness Sun altitude
Rises 18:44:39 0° 56° (NE) 3,926 5.7 -9.4°
Reaches altitude 10° 18:47:15 10° 50° (NE) 2,967 5.2 -9.8°
Maximum altitude 18:53:21 43° 342° (NNW) 1,502 4.3 -10.8°
Drops below altitude 10° 18:59:26 10° 273° (W) 2,963 7.0 -11.9°
Sets 19:02:01 0° 267° (W) 3,920 7.7 -12.3°
